Starlink 31929

operational
NORAD ID: 59836 Int'l Des: 2024-097 Owner: SPXS Country: US Constellation: starlink
LEOCIRCULAR

About Starlink 31929

Description loading...

Live Position

Loading 3D Globe...

Upcoming Passes

Altitude History

Altitude vs Time

uPlot chart will show altitude changes over time

Two-Line Element Set

1 59836U 24097B 26034.56039753 -.00000337 00000-0 -27352-5 0 9995
2 59836 42.9954 107.4085 0000389 208.2334 151.8496 15.27578571 96695
Epoch: Feb 3, 2026 • Age: 19 hours

Current Status

Altitude 484.0 km
Velocity 7.63 km/s
Sub-Earth Point 30.97°N, 119.19°W
Launch Date May 23, 2024
Age 1.7 years
Type internet

Technical Details

Classification Payload
Mass 730.00 kg
Dry Mass 700.00 kg
Total Mass 730.00 kg
Length 0.30 m
Diameter 4.10 m
Span 29.00 m
Shape Box + pan
Manufacturer SPXS
Bus Type Starlink V2M
Phase Status In Orbit
Owner/State SPXS/US

Large Constellations

Loading constellations...